Location: Newark
(44.3681°N, 100.3364°W)
Time: 16:38:33
(UTC+00:00)

deb Explorer IX - Pass Details

Date: 22 February 2020
Orbit: 547 x 1100 km, 38.8° (Epoch: 04 April)

Event Time Altitude Azimuth Distance (km) Brightness Sun altitude
Rises 17:29:32 0° 234° (SW) 2,861 ? 32.1°
Reaches altitude 10° 17:32:09 10° 223° (SW) 1,897 ? 32.3°
Maximum altitude 17:35:49 27° 164° (SSE) 1,079 ? 32.6°
Drops below altitude 10° 17:39:18 10° 106° (ESE) 1,813 ? 32.8°
Sets 17:41:45 0° 94° (E) 2,708 ? 33.0°
